Waarnemingen

Advertentie
Mijn weer
Rotterdam Zestienhoven, Nederland (6344): temperatuur & dauwpunt: 16.01.2018 17:00:00 - 22.01.2018 17:00:00 (CET)Rotterdam Zestienhoven, Nederland (6344): temperatuur 5cm: 16.01.2018 17:00:00 - 22.01.2018 17:00:00 (CET)Rotterdam Zestienhoven, Nederland (6344): windsnelheid & windstoten: 16.01.2018 17:00:00 - 22.01.2018 17:00:00 (CET)Rotterdam Zestienhoven, Nederland (6344): windrichting: 16.01.2018 17:00:00 - 22.01.2018 17:00:00 (CET)Rotterdam Zestienhoven, Nederland (6344): luchtdruk: 16.01.2018 17:00:00 - 22.01.2018 17:00:00 (CET)Rotterdam Zestienhoven, Nederland (6344): zicht: 16.01.2018 17:00:00 - 22.01.2018 17:00:00 (CET)Rotterdam Zestienhoven, Nederland (6344): neerslag: 16.01.2018 17:00:00 - 22.01.2018 17:00:00 (CET)
Datum & Tijd tt [°C] td [°C] tt 5cm [°C] ff [km/u] ff [kn] fx [km/u] fx [kn] dd ppp [hPa] vv [km] rr [mm]
22.01.2018 17:00:00 7,6 5,0 7,0 18 10 36 19 W 1012,0 16 0,0
22.01.2018 16:00:00 7,9 5,4 7,7 22 12 32 18 WNW 1010,9 15 0,0
22.01.2018 15:00:00 8,3 5,6 8,3 22 12 32 18 WNW 1009,4 16 0,0
22.01.2018 14:00:00 8,5 5,4 8,5 22 12 32 18 WNW 1008,6 18 0,0
22.01.2018 13:00:00 8,6 6,0 8,7 18 10 29 16 WNW 1008,2 20 0,0
22.01.2018 12:00:00 7,9 5,6 7,7 18 10 25 14 WNW 1007,8 20 0,0
22.01.2018 11:00:00 7,9 6,2 7,7 11 6 29 16 W 1007,4 18 0,0
22.01.2018 10:00:00 7,9 5,2 7,1 14 8 - - NW 1006,7 26 0,0
22.01.2018 09:00:00 7,5 5,1 6,4 16 9 25 14 WNW 1006,2 10 0,0
22.01.2018 08:00:00 6,5 4,6 5,4 18 10 29 16 WNW 1005,5 27 0,0
22.01.2018 07:00:00 6,9 5,9 6,2 14 8 29 16 W 1004,8 14 0,0
22.01.2018 06:00:00 6,9 6,5 6,3 18 10 25 14 W 1004,4 9 0,0
22.01.2018 05:00:00 4,7 4,5 4,3 14 8 22 12 Z 1004,3 4,4 0,1
22.01.2018 04:00:00 3,8 3,6 3,6 14 8 - - Z 1004,6 6 0,2
22.01.2018 03:00:00 3,2 2,9 3,1 14 8 25 14 Z 1005,0 2,0 0,1
22.01.2018 02:00:00 3,0 2,5 2,8 16 9 29 16 ZZO 1005,5 4,3 0,1
22.01.2018 01:00:00 2,8 2,1 2,7 18 10 36 19 ZZO 1006,7 7 0,1
22.01.2018 00:00:00 2,9 1,8 2,7 25 14 40 21 ZZO 1007,5 4,2 0,1
21.01.2018 23:00:00 2,9 1,6 2,6 25 14 40 21 ZO 1008,3 13 0,7
21.01.2018 22:00:00 3,1 1,8 2,9 22 12 - - ZZO 1009,7 10 0,8
21.01.2018 21:00:00 3,5 1,6 3,1 29 16 43 23 ZZO 1011,4 11 0,6
21.01.2018 20:00:00 4,2 2,1 3,8 18 10 32 18 ZZO 1012,2 13 0,0
21.01.2018 19:00:00 4,3 2,2 3,8 18 10 29 16 ZZO 1013,1 17 0,0
21.01.2018 18:00:00 4,4 2,4 3,9 14 8 22 12 ZZO 1013,8 20 0,0
21.01.2018 17:00:00 4,7 2,4 4,1 14 8 25 14 Z 1014,3 23 0,0
21.01.2018 16:00:00 5,1 2,4 4,7 13 7 - - Z 1015,1 10 0,0
21.01.2018 15:00:00 5,7 1,3 5,3 11 6 18 10 ZZW 1015,5 36 0,0
21.01.2018 14:00:00 5,9 2,4 5,8 11 6 22 12 WZW 1015,7 39 0,0
21.01.2018 13:00:00 6,4 2,8 7,6 11 6 18 10 ZW 1015,7 30 0,0
21.01.2018 12:00:00 6,1 1,6 6,9 9 5 14 8 ZW 1015,7 10 0,0
21.01.2018 11:00:00 4,6 1,4 2,6 5 3 11 6 WZW 1015,5 10 0,0
21.01.2018 10:00:00 1,2 -0,3 0,4 7 4 14 8 WZW 1014,9 44 0,0
21.01.2018 09:00:00 1,1 -0,6 -2,3 11 6 14 8 W 1014,5 42 0,0
21.01.2018 08:00:00 -0,4 -2,3 -3,2 4 2 22 12 WZW 1013,6 44 0,0
21.01.2018 07:00:00 1,4 -0,9 -2,6 14 8 22 12 WNW 1012,7 43 0,0
21.01.2018 06:00:00 1,8 -0,7 -1,0 14 8 22 12 WNW 1011,9 46 0,0
21.01.2018 05:00:00 1,9 0,0 -0,9 13 7 18 10 WNW 1011,0 10 0,0
21.01.2018 04:00:00 1,7 -0,4 -0,7 11 6 - - NW 1010,0 47 0,0
21.01.2018 03:00:00 2,4 0,4 -0,3 11 6 18 10 WNW 1009,3 47 0,0
21.01.2018 02:00:00 1,2 -0,2 -1,7 11 6 14 8 WNW 1007,7 38 0,0
21.01.2018 01:00:00 2,1 0,8 0,5 7 4 - - WNW 1006,5 30 0,6
21.01.2018 00:00:00 3,7 1,7 3,0 18 10 36 19 NNW 1005,5 25 0,1
20.01.2018 23:00:00 3,0 2,3 2,6 7 4 14 8 W 1004,3 37 0,0
20.01.2018 22:00:00 2,7 1,9 2,1 7 4 - - WZW 1003,4 47 0,0
20.01.2018 21:00:00 3,2 2,5 2,9 9 5 14 8 WNW 1002,5 10 0,4
20.01.2018 20:00:00 2,7 2,7 2,0 7 4 7 4 WNW 1001,5 4,8 0,1
20.01.2018 19:00:00 3,1 2,7 2,6 0 0 4 2 N 1000,8 11 0,0
20.01.2018 18:00:00 3,4 2,6 2,6 0 0 11 6 N 1000,1 16 0,0
20.01.2018 17:00:00 3,7 2,5 3,3 4 2 22 12 ZZO 999,5 26 0,0
20.01.2018 16:00:00 4,0 2,1 3,8 14 8 - - ZZO 999,3 39 0,0
20.01.2018 15:00:00 4,1 2,4 4,2 14 8 22 12 Z 999,5 42 0,0
20.01.2018 14:00:00 4,2 2,9 4,3 22 12 29 16 Z 1000,0 32 0,0
20.01.2018 13:00:00 4,0 2,8 3,9 14 8 32 18 Z 1001,2 17 0,0
20.01.2018 12:00:00 3,5 2,5 3,4 15 8 25 14 Z 1002,6 10 0,0
20.01.2018 11:00:00 2,9 1,9 2,8 14 8 22 12 Z 1003,0 15 0,0
20.01.2018 10:00:00 2,4 1,4 2,0 18 10 - - Z 1003,7 17 0,0
20.01.2018 09:00:00 1,9 0,9 1,4 18 10 29 16 Z 1004,3 14 0,0
20.01.2018 08:00:00 2,0 0,9 1,3 18 10 32 18 Z 1004,6 14 0,0
20.01.2018 07:00:00 2,3 1,2 1,5 14 8 22 12 Z 1005,0 19 0,0
20.01.2018 06:00:00 2,1 0,8 0,7 13 7 18 10 ZZW 1005,4 10 0,0
20.01.2018 05:00:00 2,3 0,3 0,9 11 6 25 14 Z 1006,1 26 0,0
20.01.2018 04:00:00 2,6 0,1 0,7 15 8 - - ZW 1006,6 10 0,0
20.01.2018 03:00:00 3,9 0,4 2,3 14 8 29 16 WZW 1007,2 31 0,0
20.01.2018 02:00:00 3,2 0,4 1,7 18 10 22 12 ZW 1007,4 36 0,0
20.01.2018 01:00:00 3,0 0,4 2,2 14 8 29 16 ZW 1007,6 37 0,0
20.01.2018 00:00:00 3,3 0,3 2,1 18 10 29 16 ZW 1007,5 10 0,0
19.01.2018 23:00:00 4,0 0,3 2,8 18 10 36 19 ZZW 1007,5 45 0,0
19.01.2018 22:00:00 3,6 0,1 0,8 18 10 - - ZW 1007,5 45 0,0
19.01.2018 21:00:00 3,3 -0,1 2,0 14 8 32 18 WZW 1007,6 48 0,0
19.01.2018 20:00:00 4,3 0,1 3,2 18 10 25 14 WZW 1007,5 10 0,0
19.01.2018 19:00:00 3,7 0,3 2,7 18 10 32 18 WZW 1007,7 41 0,0
19.01.2018 18:00:00 3,6 1,1 2,3 15 8 22 12 ZW 1007,6 10 0,0
19.01.2018 17:00:00 4,5 0,4 3,4 14 8 32 18 WZW 1007,7 44 0,0
19.01.2018 16:00:00 5,7 1,4 5,0 22 12 - - WZW 1007,6 36 0,0
19.01.2018 15:00:00 5,7 1,3 5,6 25 14 36 19 WZW 1007,5 37 0,0
19.01.2018 14:00:00 5,5 0,5 5,0 18 10 36 19 WZW 1007,8 49 0,0
19.01.2018 13:00:00 6,7 2,0 7,8 22 12 36 19 WZW 1007,8 32 0,0
19.01.2018 12:00:00 6,2 2,6 5,3 14 8 25 14 W 1007,8 34 0,0
19.01.2018 11:00:00 5,3 2,2 4,5 13 7 25 14 W 1007,9 10 0,0
19.01.2018 10:00:00 4,4 1,6 3,7 18 10 - - W 1007,4 10 0,0
19.01.2018 09:00:00 4,0 1,4 3,2 15 8 29 16 W 1006,8 10 0,0
19.01.2018 08:00:00 4,4 1,6 3,4 15 8 29 16 W 1006,2 10 0,0
19.01.2018 07:00:00 4,2 1,7 3,1 16 9 29 16 W 1005,7 10 0,0
19.01.2018 06:00:00 4,5 2,2 3,9 18 10 32 18 W 1005,2 10 0,0
19.01.2018 05:00:00 4,4 2,1 3,8 16 9 40 21 W 1004,5 10 0,1
19.01.2018 04:00:00 4,3 2,2 3,2 13 7 36 19 W 1004,1 10 0,4
19.01.2018 03:00:00 4,1 2,4 3,4 8 4 29 16 W 1003,6 10 0,4
19.01.2018 02:00:00 3,9 2,0 3,1 13 7 25 14 WNW 1002,8 10 0,4
19.01.2018 01:00:00 3,7 3,0 3,2 9 5 14 8 ZW 1002,6 10 0,1
19.01.2018 00:00:00 2,7 2,0 1,2 5 3 29 16 ZW 1002,2 10 0,4
18.01.2018 23:00:00 3,5 2,3 3,2 5 3 36 19 NW 1002,3 6 2,1
18.01.2018 22:00:00 4,4 2,8 3,7 8 4 18 10 ZZW 1001,3 10 0,1
18.01.2018 21:00:00 4,5 2,3 3,5 15 8 32 18 WZW 1001,2 10 0,0
18.01.2018 20:00:00 4,0 1,9 3,4 24 13 36 19 WZW 1001,2 10 0,2
18.01.2018 19:00:00 4,2 1,6 2,7 11 6 18 10 W 1001,1 10 0,0
18.01.2018 18:00:00 4,5 1,7 3,4 16 9 25 14 W 1001,3 10 0,0
18.01.2018 17:00:00 4,7 1,4 3,6 15 8 32 18 W 1001,3 10 0,0
18.01.2018 16:00:00 5,1 1,4 4,4 21 11 - - W 1001,0 10 0,0
18.01.2018 15:00:00 5,6 1,8 5,4 29 16 47 25 W 1000,2 10 0,0
18.01.2018 14:00:00 5,3 2,0 5,1 29 16 65 35 W 999,7 10 0,0
18.01.2018 13:00:00 5,5 3,5 5,4 35 19 65 35 W 998,3 10 1,0
18.01.2018 12:00:00 6,0 3,0 5,7 48 26 90 49 WNW 996,7 10 0,0
18.01.2018 11:00:00 6,0 2,6 5,8 63 34 112 60 WNW 993,7 10 0,0
18.01.2018 10:00:00 5,8 1,7 5,5 74 40 - - W 989,5 10 0,0
18.01.2018 09:00:00 9,0 2,6 8,3 65 35 94 51 W 986,4 10 0,0
18.01.2018 08:00:00 9,8 6,6 9,0 57 31 86 47 WZW 985,3 9 0,0
18.01.2018 07:00:00 9,7 7,8 8,9 55 30 90 49 ZW 986,3 10 0,1
18.01.2018 06:00:00 7,5 6,4 6,3 46 25 76 41 ZZW 987,3 10 1,6
18.01.2018 05:00:00 4,8 4,1 4,3 39 21 58 31 Z 990,7 2,5 1,9
18.01.2018 04:00:00 3,9 2,6 3,3 29 16 - - Z 994,6 8 2,3
18.01.2018 03:00:00 4,0 2,3 3,7 28 15 58 31 Z 998,4 8 1,6
18.01.2018 02:00:00 4,9 2,1 4,3 26 14 47 25 ZW 1001,0 10 0,1
18.01.2018 01:00:00 5,8 2,3 5,2 24 13 43 23 ZW 1003,0 10 0,0
18.01.2018 00:00:00 6,1 1,9 5,4 26 14 43 23 WZW 1004,4 10 0,0
17.01.2018 23:00:00 6,2 1,0 5,2 26 14 40 21 WZW 1005,2 10 0,0
17.01.2018 22:00:00 5,9 0,7 5,2 24 13 - - WZW 1005,8 10 0,0
17.01.2018 21:00:00 6,2 0,3 5,4 28 15 47 25 W 1005,5 10 0,0
17.01.2018 20:00:00 6,2 0,8 5,5 28 15 43 23 W 1005,7 10 0,0
17.01.2018 19:00:00 6,0 0,8 5,3 26 14 43 23 W 1005,7 10 0,0
17.01.2018 18:00:00 6,0 0,7 5,1 28 15 43 23 W 1005,6 10 0,0
17.01.2018 17:00:00 5,4 0,6 4,5 34 18 54 29 W 1005,0 10 0,0
17.01.2018 16:00:00 5,9 1,0 5,5 34 18 - - W 1004,1 10 0,0
17.01.2018 15:00:00 6,0 1,0 5,8 37 20 65 35 W 1003,1 10 0,0
17.01.2018 14:00:00 6,0 0,4 6,0 44 24 72 39 W 1002,2 10 0,0
17.01.2018 13:00:00 5,6 0,4 5,2 42 23 72 39 WNW 1001,2 10 0,0
17.01.2018 12:00:00 5,5 0,6 5,0 37 20 61 33 W 1000,5 10 0,0
17.01.2018 11:00:00 4,8 0,9 4,2 37 20 61 33 W 999,8 10 0,0
17.01.2018 10:00:00 4,4 0,4 3,8 37 20 58 31 W 998,6 10 0,0
17.01.2018 09:00:00 4,0 -0,2 3,2 28 15 61 33 W 997,8 10 0,1
17.01.2018 08:00:00 3,1 -0,7 2,6 37 20 58 31 W 996,4 10 0,4
17.01.2018 07:00:00 3,7 -1,2 2,9 34 18 65 35 W 995,4 10 0,3
17.01.2018 06:00:00 3,4 -1,2 2,5 31 17 58 31 W 994,4 10 0,1
17.01.2018 05:00:00 2,9 -1,0 2,3 29 16 54 29 W 993,5 10 0,1
17.01.2018 04:00:00 4,1 -0,5 3,3 35 19 54 29 W 992,9 10 0,0
17.01.2018 03:00:00 3,9 -0,1 2,8 31 17 43 23 W 992,1 10 0,3
17.01.2018 02:00:00 4,2 -0,1 3,6 22 12 43 23 W 991,7 10 0,0
17.01.2018 01:00:00 4,3 0,5 3,2 21 11 43 23 WNW 991,6 10 0,0
17.01.2018 00:00:00 4,6 0,8 4,1 26 14 43 23 W 991,4 10 0,2
16.01.2018 23:00:00 5,6 1,4 4,3 22 12 40 21 WZW 991,3 10 0,3
16.01.2018 22:00:00 5,7 0,6 4,6 21 11 40 21 WZW 991,7 10 0,0
16.01.2018 21:00:00 5,4 0,3 4,2 15 8 43 23 WZW 992,2 10 0,1
16.01.2018 20:00:00 5,4 -0,2 3,8 18 10 32 18 WZW 992,6 10 0,0
16.01.2018 19:00:00 5,4 0,4 4,2 21 11 50 27 W 992,8 10 0,0
16.01.2018 18:00:00 5,3 0,1 4,3 28 15 43 23 W 993,3 10 0,0
16.01.2018 17:00:00 5,3 1,0 4,3 24 13 47 25 W 993,5 10 0,0

tt = temperatuur
td = dauwpunt
tt 5cm = temperatuur 5cm
ff = windsnelheid
fx = windstoten
dd = windrichting
ppp = luchtdruk
vv = zicht
rr = neerslag

Weerstations in de omgeving